Location: Andrest
(43.3200°N, 0.0641°E)
Time: 13:31:15
(UTC+00:00)

CZ-4C R/B - Pass Details

Date: 01 December 2020
Orbit: 406 x 489 km, 97.7° (Epoch: 24 January)

Event Time Altitude Azimuth Distance (km) Brightness Sun altitude
Rises 17:07:22 0° 9° (N) 2,579 6.4 -7.7°
Reaches altitude 10° 17:09:27 10° 7° (N) 1,692 5.5 -8.1°
Maximum altitude 17:13:05 67° 285° (WNW) 535 3.5 -8.7°
Drops below altitude 10° 17:16:38 10° 203° (SSW) 1,663 6.5 -9.3°
Sets 17:18:41 0° 200° (SSW) 2,529 7.4 -9.6°
